Walla Walla, WA
on Saturday, November 10, 2012

Saturday
Previous Day Next Day
Daily Summary
 ActualAverage (KPDT)Record (KPDT)
Temperature
Mean Temperature °F 43°F  
Max Temperature 39°F 52°F 71°F (1930)
Min Temperature 32°F 35°F 12°F (1911)
Degree Days
Heating Degree Days 30 22  
Month to date heating degree days 202  
Since 1 July heating degree days 744  
Cooling Degree Days 0 0  
Month to date cooling degree days 0  
Year to date cooling degree days 636  
Moisture
Dew Point 32°F   
Average Humidity 89    
Maximum Humidity 100    
Minimum Humidity 65    
Precipitation
Precipitation 0.01 in 0.05 in 0.55 in (1922)
Month to date precipitation 0.49  
Year to date precipitation 10.16  
Snow
Snow 0.00 in 0.10 in 5.10 in (1985)
Month to date snowfall 0.2  
Year to date snowfall 8.0  
Since 1 July snowfall 0.3  
Snow Depth in   
Wind
Wind Speed 3 mph   
Max Wind Speed 8 mph   
Max Gust Speed mph   
Visibility 6 miles   
Events Fog , Snow   

Key: T is trace of precipitation, MM is missing value
Source: NWS Daily Summary
Time(PST)TemperatureDew PointHumidity Pressure Visibility Wind DirectionWind SpeedGust SpeedPrecipitationEvents Conditions
12:30 AM 33.8°F 33.8°F 100% 29.90 in 5.0 miles Calm Calm - N/A   Overcast
12:39 AM 35.6°F 33.8°F 93% 29.90 in 6.0 miles Calm Calm - N/A   Overcast
12:53 AM 35.1°F 33.1°F 92% 29.93 in 10.0 miles SE 4.6 mph - N/A   Overcast
1:12 AM 35.6°F 33.8°F 93% 29.90 in 10.0 miles SE 3.5 mph - N/A   Overcast
1:53 AM 35.1°F 33.1°F 92% 29.94 in 3.0 miles South 3.5 mph - N/A   Overcast
2:21 AM 35.6°F 33.8°F 93% 29.92 in 3.0 miles South 4.6 mph - N/A   Overcast
2:25 AM 33.8°F 33.8°F 100% 29.92 in 2.5 miles South 4.6 mph - N/A   Overcast
2:38 AM 33.8°F 33.8°F 100% 29.92 in 3.0 miles South 4.6 mph - N/A   Overcast
2:53 AM 35.1°F 34.0°F 96% 29.95 in 3.0 miles South 4.6 mph - N/A   Overcast
3:49 AM 35.6°F 33.8°F 93% 29.94 in 5.0 miles SSW 3.5 mph - N/A   Overcast
3:53 AM 35.1°F 34.0°F 96% 29.97 in 4.0 miles SSW 3.5 mph - N/A   Overcast
4:16 AM 35.6°F 33.8°F 93% 29.95 in 2.5 miles South 6.9 mph - N/A   Overcast
4:53 AM 34.0°F 33.1°F 96% 29.99 in 2.5 miles SSW 3.5 mph - N/A   Overcast
5:11 AM 33.8°F 33.8°F 100% 29.96 in 0.8 miles West 3.5 mph - N/A   Overcast
5:50 AM 33.8°F 32.0°F 93% 29.97 in 0.2 miles South 4.6 mph - N/A Fog Fog
5:53 AM 33.1°F 32.0°F 96% 30.00 in 0.2 miles South 4.6 mph - N/A Fog Fog
6:03 AM 33.8°F 32.0°F 93% 29.97 in 1.0 miles South 5.8 mph - N/A   Mist
6:18 AM 32.0°F 32.0°F 100% 29.97 in 0.2 miles South 5.8 mph - N/A Fog Fog
6:53 AM 32.0°F 32.0°F 100% 30.02 in 0.5 miles South 5.8 mph - N/A Fog Fog
7:11 AM 32.0°F 30.2°F 93% 29.99 in 2.0 miles South 5.8 mph - N/A   Overcast
7:21 AM 32.0°F 30.2°F 93% 30.00 in 4.0 miles South 5.8 mph - N/A   Overcast
7:53 AM 32.0°F 30.9°F 96% 30.04 in 6.0 miles South 8.1 mph - N/A   Overcast
8:39 AM 32.0°F 30.2°F 93% 30.02 in 6.0 miles South 6.9 mph - N/A   Overcast
8:53 AM 32.0°F 30.0°F 92% 30.06 in 3.0 miles SSE 8.1 mph - N/A   Overcast
9:53 AM 33.1°F 30.9°F 92% 30.09 in 7.0 miles WSW 5.8 mph - N/A   Overcast
10:04 AM 33.8°F 30.2°F 87% 30.05 in 5.0 miles WSW 5.8 mph - N/A   Overcast
10:19 AM 33.8°F 30.2°F 87% 30.06 in 8.0 miles WSW 4.6 mph - N/A   Overcast
10:53 AM 34.0°F 30.0°F 85% 30.09 in 10.0 miles SSW 3.5 mph - N/A   Mostly Cloudy
11:08 AM 35.6°F 30.2°F 81% 30.06 in 10.0 miles SSW 3.5 mph - N/A   Overcast
11:35 AM 37.4°F 30.2°F 75% 30.06 in 10.0 miles South 3.5 mph - N/A   Mostly Cloudy
11:53 AM 37.0°F 30.0°F 76% 30.10 in 10.0 miles Variable 5.8 mph - N/A   Overcast
12:41 PM 37.4°F 30.2°F 75% 30.08 in 10.0 miles Calm Calm - N/A   Overcast
12:53 PM 37.9°F 32.0°F 79% 30.11 in 10.0 miles West 5.8 mph - N/A   Overcast
1:03 PM 37.4°F 30.2°F 75% 30.08 in 10.0 miles WNW 3.5 mph - N/A   Overcast
1:12 PM 37.4°F 30.2°F 75% 30.08 in 10.0 miles WNW 3.5 mph - N/A   Overcast
1:53 PM 39.0°F 30.0°F 70% 30.12 in 10.0 miles Calm Calm - N/A   Overcast
2:53 PM 39.0°F 28.0°F 65% 30.14 in 10.0 miles Calm Calm - N/A   Overcast
3:53 PM 37.9°F 30.0°F 73% 30.16 in 10.0 miles North 5.8 mph - N/A   Overcast
4:49 PM 35.6°F 32.0°F 87% 30.15 in 3.0 miles NNW 4.6 mph - 0.00 in Snow Light Snow
4:53 PM 35.1°F 32.0°F 89% 30.18 in 3.0 miles North 4.6 mph - 0.00 in Snow Light Snow
5:06 PM 33.8°F 32.0°F 93% 30.15 in 3.0 miles Calm Calm - 0.00 in Snow Light Snow
5:14 PM 33.8°F 32.0°F 93% 30.15 in 2.5 miles Calm Calm - 0.01 in Snow Light Snow
5:23 PM 35.6°F 32.0°F 87% 30.16 in 5.0 miles Calm Calm - 0.01 in Snow Light Snow
5:53 PM 35.1°F 32.0°F 89% 30.19 in 8.0 miles ESE 3.5 mph - 0.01 in   Overcast
6:24 PM 33.8°F 32.0°F 93% 30.16 in 10.0 miles East 3.5 mph - N/A   Scattered Clouds
6:53 PM 34.0°F 30.9°F 89% 30.20 in 10.0 miles SSE 5.8 mph - N/A   Scattered Clouds
7:35 PM 33.8°F 30.2°F 87% 30.18 in 10.0 miles Calm Calm - N/A   Overcast
8:00 PM 33.8°F 30.2°F 87% 30.18 in 8.0 miles South 3.5 mph - N/A   Mostly Cloudy
9:53 PM 33.1°F 30.9°F 92% 30.24 in 8.0 miles Calm Calm - N/A   Overcast
10:53 PM 34.0°F 32.0°F 92% 30.26 in 9.0 miles Calm Calm - N/A   Overcast
11:27 PM 33.8°F 30.2°F 87% 30.22 in 9.0 miles SE 3.5 mph - N/A   Scattered Clouds
11:53 PM 32.0°F 30.0°F 92% 30.26 in 8.0 miles SE 4.6 mph - N/A   Clear
Moon Phase
Nov. 10 Nov. 13 Nov. 20 Nov. 28 Dec. 06
Sunrise:06:47 AM (PST) Moon Rise:02:47 AM (PST)11/10
Sunset:04:26 PM (PST) Moon Set:02:24 PM (PST)11/10

Copyright © 2014 The Weather Underground, Inc.